Flag for Angola Weather past 2 weeks in Lubango, Angola

Now
68 °F

Passing clouds.


Feels Like: 68 °F
Forecast: 51 / 82 °F
Wind: 3 mph from North

Location: Luanda Airport

Current Time: Sep 3, 2015 at 1:31:06 AM

Latest Report: Sep 3, 2015 at 12:00 AM


Visibility: N/A

Pressure: 30.01 "Hg (24.43 "Hg at 1765m altitude)

Humidity: 88%

Dew point: 64 °F

Location of LubangoLocation

Historic Weather in Lubango — Graph

°F

Lubango temperature yesterday

Maximum temperature yesterday: 77 °F (at 12:00 PM)
Minimum temperature yesterday: 66 °F (at 1:00 AM)
Average temperature yesterday: 71 °F

Past Weeks' High & Low Weather Summary

 TemperatureHumidityPressure
High81 °F (Aug 31, 12:00 PM)100% (Aug 23, 6:00 AM)30.24 "Hg (Aug 23, 6:00 AM)
Low61 °F (Aug 23, 6:00 AM)27% (Aug 21, 7:00 PM)29.83 "Hg (Aug 23, 4:00 PM)
Average70 °F82%29.95 "Hg
* Reported Midnight between Aug 18 and Aug 19 — Midnight between Sep 2 and Sep 3, Lubango, Weather by CustomWeather, © 2015

Note: Actual official high and low records may vary slightly from our data, if they occured in-between our weather recording intervals... More about our weather records

Advertising

Lubango weather history for previous 24 hours

 ConditionsComfort  
Time TempWeatherWind HumidityBarometerVisibility
12:00 AM
Thu, Sep 3
68 °FPassing clouds.3 mph88%30.01 "HgN/A
11:00 PM
Wed, Sep 2
68 °FPassing clouds.6 mph88%30.01 "HgN/A
10:00 PM68 °FClear.6 mph88%29.98 "Hg10 mi
9:00 PM68 °FPassing clouds.7 mph88%29.98 "HgN/A
8:00 PM68 °FClear.6 mph88%29.95 "Hg10 mi
7:00 PM68 °FPassing clouds.7 mph83%29.92 "HgN/A
6:00 PM70 °FPassing clouds.7 mph78%29.89 "HgN/A
5:00 PM73 °FPassing clouds.8 mph69%29.89 "HgN/A
4:00 PM75 °FScattered clouds.9 mph65%29.89 "HgN/A
3:00 PM75 °FScattered clouds.10 mph65%29.92 "HgN/A
2:00 PM77 °FScattered clouds.10 mph57%29.92 "HgN/A
1:00 PM77 °FScattered clouds.9 mph57%29.95 "HgN/A
12:00 PM77 °FScattered clouds.7 mph57%29.98 "HgN/A
11:00 AM75 °FPartly sunny.7 mph61%30.01 "HgN/A
10:00 AM73 °FPartly sunny.5 mph74%30.01 "Hg5 mi
9:00 AM72 °FPartly sunny.2 mph78%30.01 "Hg5 mi
8:00 AM70 °FPartly sunny.2 mph83%29.98 "Hg5 mi
7:00 AM68 °FFog.3 mph88%29.98 "Hg3 mi
6:00 AM68 °FPartly cloudy.5 mph88%29.98 "Hg5 mi
5:00 AM68 °FPassing clouds.5 mph88%29.98 "Hg5 mi
4:00 AM68 °FPassing clouds.2 mph88%29.98 "HgN/A
3:00 AM68 °FPassing clouds.3 mph88%29.98 "HgN/A
2:00 AM68 °FPassing clouds.5 mph88%29.98 "HgN/A
1:00 AM66 °FPassing clouds.3 mph94%29.98 "HgN/A
Weather by CustomWeather, © 2015

See weather overviewHow to use our weather pages